User: anonymous   Login
Location: Unspecified
(0.0000°N, 0.0000°E)
Time: 16:06:03
(UTC+00:00)
Language:

LO-87 - Orbit

View from above orbital plane
View from above orbital plane
View from above satellite
View from above satellite

Ground track
Ground track

The orbit data is extracted from the following two-line orbital elements,

1 41557U 16033B   19078.70061663  .00001406  00000-0  55869-4 0  9997
2 41557  97.4194 166.7453 0012368 257.7228 102.2626 15.26955532156209
Epoch (UTC): 19 March 2019 16:48:53
Eccentricity: 0.0012368
inclination: 97.4194°
perigee height: 476 km
apogee height: 493 km
right ascension of ascending node: 166.7453°
argument of perigee: 257.7228°
revolutions per day: 15.26955532
mean anomaly at epoch: 102.2626°
orbit number at epoch: 15620

The dashed part of the orbit path shows where the satellite is in the earth's shadow,  

DLR